Istanbul, Turkey

7:07 AM +03 on May 30, 2017 (GMT +0300)
Ataturk

Weather History for LTBA - December, 2012

Change the Weather History Date:

Sunday, December 9, 2012

  Actual Average Record
Temperature  
Mean Temperature 54 °F -  
Max Temperature 60 °F 48 °F 62 °F (2010)
Min Temperature 49 °F 40 °F 33 °F (1998)
Degree Days  
Heating Degree Days 10    
Growing Degree Days 4 (Base 50)    
Moisture  
Dew Point 40 °F    
Average Humidity 58    
Maximum Humidity 94    
Minimum Humidity 33    
Precipitation  
Precipitation 0.08 in - - ()
Sea Level Pressure  
Sea Level Pressure 29.76 in    
Wind  
Wind Speed 15 mph ()    
Max Wind Speed 22 mph    
Max Gust Speed -    
Visibility 5.9 miles    
Events Rain    
Averages and records for this station are not official NWS values.
T = Trace of Precipitation, MM = Missing Value Source: Averaged Metar Reports

Daily Weather History Graph

Daily Weather History Graph

Search for Another Location

Airport or City:

Trip Planner

Search our weather history database for the weather conditions in past years. The results will help you decide how hot, cold, wet, or windy it might be!

Date:

Astronomy

Dec. 09, 2012 Rise Set
Actual Time 7:17 AM EET 4:36 PM EET
Civil Twilight 6:46 AM EET 5:07 PM EET
Nautical Twilight 6:12 AM EET 5:41 PM EET
Astronomical Twilight 5:39 AM EET 6:15 PM EET
Moon 2:26 AM EET (12/9) 1:32 PM EET (12/9)
Length of Visible Light 10h 20m
Length of Day
9h 18m
Waning Crescent, 21% of the Moon is Illuminated
Dec 9
Waning Crescent
Dec 13
New
Dec 20
First Quarter
Dec 28
Full
Jan 5
Last Quarter

Hourly Weather History & Observations

Time (EET) Temp. Dew Point Humidity Pressure Visibility Wind Dir Wind Speed Gust Speed Precip Events Conditions
12:20 AM 51.8 °F 32.0 °F 47% 29.92 in - SE 17.3 mph - N/A   Clear
12:50 AM 51.8 °F 32.0 °F 47% 29.92 in - SE 15.0 mph - N/A   Clear
1:20 AM 51.8 °F 33.8 °F 50% 29.92 in - SE 17.3 mph - N/A   Clear
1:50 AM 51.8 °F 35.6 °F 54% 29.92 in - SE 16.1 mph - N/A   Clear
2:20 AM 51.8 °F 35.6 °F 54% 29.89 in - ESE 16.1 mph - N/A   Clear
2:50 AM 51.8 °F 35.6 °F 54% 29.89 in - ESE 16.1 mph - N/A   Clear
3:20 AM 51.8 °F 35.6 °F 54% 29.86 in - ESE 17.3 mph - N/A   Clear
3:50 AM 51.8 °F 37.4 °F 58% 29.89 in - SE 16.1 mph - N/A   Clear
4:20 AM 51.8 °F 33.8 °F 50% 29.86 in - ESE 15.0 mph - N/A   Clear
4:50 AM 51.8 °F 32.0 °F 47% 29.86 in - ESE 16.1 mph - N/A   Clear
5:20 AM 51.8 °F 35.6 °F 54% 29.83 in - ESE 17.3 mph - N/A   Clear
5:50 AM 51.8 °F 33.8 °F 50% 29.83 in - ESE 17.3 mph - N/A   Clear
6:20 AM 51.8 °F 32.0 °F 47% 29.83 in 6.2 mi ESE 19.6 mph - N/A   Partly Cloudy
6:50 AM 53.6 °F 32.0 °F 44% 29.80 in 6.2 mi ESE 20.7 mph - N/A   Scattered Clouds
7:20 AM 51.8 °F 33.8 °F 50% 29.80 in 6.2 mi ESE 18.4 mph - N/A   Scattered Clouds
7:50 AM 53.6 °F 32.0 °F 44% 29.80 in 6.2 mi ESE 18.4 mph - N/A   Mostly Cloudy
8:00 AM 53 °F 32 °F 33% 29.82 in 6 mi ESE 18.4 mph - -   Scattered Clouds
8:20 AM 53.6 °F 32.0 °F 44% 29.80 in 6.2 mi ESE 21.9 mph - N/A   Mostly Cloudy
8:50 AM 53.6 °F 33.8 °F 47% 29.80 in 6.2 mi ESE 17.3 mph - N/A   Mostly Cloudy
9:20 AM 53.6 °F 33.8 °F 47% 29.80 in 6.2 mi ESE 18.4 mph - N/A   Mostly Cloudy
9:50 AM 53.6 °F 37.4 °F 54% 29.80 in 6.2 mi ESE 13.8 mph - N/A Rain Light Rain Showers
10:20 AM 51.8 °F 39.2 °F 62% 29.80 in 6.2 mi ESE 13.8 mph - N/A Rain Light Rain Showers
10:50 AM 55.4 °F 39.2 °F 54% 29.80 in 6.2 mi ESE 15.0 mph - N/A   Scattered Clouds
11:20 AM 55.4 °F 39.2 °F 54% 29.77 in 6.2 mi ESE 13.8 mph - N/A   Scattered Clouds
11:50 AM 55.4 °F 37.4 °F 51% 29.74 in 6.2 mi ESE 18.4 mph - N/A   Scattered Clouds
12:20 PM 57.2 °F 39.2 °F 51% 29.74 in 6.2 mi ESE 18.4 mph - N/A   Scattered Clouds
12:50 PM 57.2 °F 39.2 °F 51% 29.71 in 6.2 mi ESE 16.1 mph - N/A   Mostly Cloudy
1:20 PM 57.2 °F 41.0 °F 55% 29.71 in 6.2 mi ESE 13.8 mph - N/A   Mostly Cloudy
1:50 PM 57.2 °F 39.2 °F 51% 29.71 in 6.2 mi ESE 12.7 mph - N/A   Mostly Cloudy
2:00 PM 58 °F 39 °F 38% 29.72 in 6 mi ESE 12.7 mph - -   Partly Cloudy
2:20 PM 59.0 °F 41.0 °F 51% 29.68 in 6.2 mi ESE 13.8 mph - N/A Rain Light Rain Showers
2:50 PM 59.0 °F 42.8 °F 55% 29.68 in 6.2 mi ESE 11.5 mph - N/A   Mostly Cloudy
3:20 PM 59.0 °F 42.8 °F 55% 29.68 in 6.2 mi SE 15.0 mph - N/A   Mostly Cloudy
3:50 PM 57.2 °F 42.8 °F 59% 29.68 in 6.2 mi SE 13.8 mph - N/A   Mostly Cloudy
4:20 PM 59.0 °F 42.8 °F 55% 29.68 in 6.2 mi ESE 15.0 mph - N/A   Mostly Cloudy
4:50 PM 57.2 °F 44.6 °F 63% 29.68 in 6.2 mi SE 15.0 mph - N/A Rain Light Rain Showers
5:20 PM 57.2 °F 44.6 °F 63% 29.68 in 5.0 mi ESE 11.5 mph - N/A Rain Light Rain Showers
5:50 PM 57.2 °F 44.6 °F 63% 29.68 in 5.0 mi SE 6.9 mph - N/A Rain Light Rain Showers
6:20 PM 57.2 °F 44.6 °F 63% 29.65 in 6.2 mi SE 4.6 mph - N/A Rain Light Rain Showers
6:50 PM 59.0 °F 44.6 °F 59% 29.65 in 6.2 mi SE 11.5 mph - N/A Rain Light Rain Showers
7:20 PM 59.0 °F 46.4 °F 63% 29.65 in 6.2 mi SSE 9.2 mph - N/A Rain Light Rain Showers
7:50 PM 55.4 °F 48.2 °F 77% 29.68 in 6.2 mi WNW 8.1 mph - N/A Rain Light Rain Showers
8:00 PM 54 °F 47 °F 70% 29.70 in 6 mi WNW 8.1 mph - - Rain Light Rain Showers
8:20 PM 55.4 °F 48.2 °F 77% 29.68 in 6.2 mi SSW 9.2 mph - N/A   Mostly Cloudy
8:50 PM 55.4 °F 48.2 °F 77% 29.68 in 6.2 mi SSW 18.4 mph - N/A Rain Light Rain Showers
9:20 PM 55.4 °F 48.2 °F 77% 29.65 in 6.2 mi SSW 13.8 mph - N/A   Mostly Cloudy
9:50 PM 57.2 °F 46.4 °F 67% 29.65 in 6.2 mi SW 20.7 mph - N/A   Mostly Cloudy
10:20 PM 55.4 °F 50.0 °F 82% 29.68 in 3.7 mi SSW 21.9 mph - N/A Rain Light Rain Showers
10:50 PM 53.6 °F 51.8 °F 94% 29.71 in 3.7 mi SW 20.7 mph - N/A Rain Light Rain Showers
11:20 PM 51.8 °F 50.0 °F 94% 29.71 in 3.1 mi WSW 16.1 mph - N/A Rain Light Rain Showers
11:50 PM 51.8 °F 48.2 °F 88% 29.71 in 4.3 mi WSW 11.5 mph - N/A Rain Light Rain Showers